Date,TemperatureHighF,TemperatureAvgF,TemperatureLowF,DewpointHighF,DewpointAvgF,DewpointLowF,HumidityHigh,HumidityAvg,HumidityLow,PressureMaxIn,PressureMinIn,WindSpeedMaxMPH,WindSpeedAvgMPH,GustSpeedMaxMPH,PrecipitationSumIn
2012-12-1,30.8,29.7,27.8,28.1,23.2,15.2,90,78,52,30.63,30.51,1,0,2,0.00
2012-12-2,51.3,39.8,30.4,47.3,36.6,27.8,93,88,81,30.50,30.03,1,0,2,0.04
2012-12-3,58.1,49.2,36.2,47.3,42.8,34.4,93,80,59,30.29,30.01,6,1,6,0.00
2012-12-4,58.1,46.0,33.9,54.2,43.4,32.4,94,91,87,30.31,29.98,1,0,4,0.00
2012-12-5,58.3,50.3,34.1,54.4,39.6,16.9,89,68,49,30.13,29.81,7,3,10,0.01
2012-12-6,39.6,25.0,25.0,23.1,-8.0,-99.9,85,47,43,30.32,30.14,3,-233,7,0.00
2012-12-7,44.8,32.6,24.5,40.2,13.3,-99.9,92,69,69,30.30,30.04,1,-146,1,0.03
2012-12-8,44.4,26.8,42.3,42.5,-11.9,-99.9,93,58,92,30.03,29.86,1,-374,2,0.04
2012-12-9,45.1,32.9,40.1,42.5,4.9,-99.9,93,60,65,30.29,29.95,3,-228,4,0.09
2012-12-10,59.5,41.9,42.3,56.9,19.1,-99.9,93,72,90,30.17,29.48,1,-208,3,0.29
2012-12-11,56.0,29.5,34.2,53.4,-8.6,-99.9,91,47,58,30.14,29.51,5,-310,7,0.00
2012-12-12,39.5,33.3,28.8,25.8,24.1,23.0,83,69,53,30.42,30.15,2,1,5,0.00
2012-12-13,43.3,32.7,26.3,29.7,26.1,24.0,91,78,53,30.47,30.30,1,0,3,0.00
2012-12-14,48.7,36.0,26.4,29.1,25.6,21.5,90,69,34,30.29,30.04,4,1,4,0.00
2012-12-15,41.7,34.3,28.8,28.6,25.9,22.4,87,72,48,30.34,30.15,3,0,3,0.00
2012-12-16,37.3,33.6,30.4,35.5,28.7,23.1,93,82,72,30.32,30.09,3,1,6,0.33
2012-12-17,38.5,34.4,31.4,36.7,32.8,29.7,94,94,91,30.07,29.82,2,0,4,0.72
2012-12-18,51.4,44.3,36.3,49.4,42.3,34.7,94,93,90,29.80,29.39,3,1,3,0.90
2012-12-19,45.9,41.5,37.5,39.1,34.5,30.9,90,77,64,30.02,29.43,6,4,13,0.00
2012-12-20,43.3,37.2,28.2,35.7,31.5,26.2,93,80,65,30.21,30.04,2,0,4,0.01
2012-12-21,53.0,44.6,38.3,50.1,40.9,34.5,92,87,75,30.04,29.08,6,3,13,0.67
2012-12-22,39.4,34.4,29.5,33.9,24.9,17.0,85,69,52,29.63,29.22,7,3,10,0.00
2012-12-23,38.6,32.4,26.5,25.7,21.1,16.8,82,63,46,29.86,29.63,5,2,6,0.00
2012-12-24,40.5,32.9,27.5,24.4,21.9,18.9,81,65,43,30.06,29.86,4,1,4,0.00
2012-12-25,33.8,31.2,27.5,28.6,25.1,20.3,87,78,66,30.22,29.99,3,1,8,0.00
2012-12-26,38.0,30.5,21.1,33.7,23.2,14.4,91,74,61,30.31,29.96,4,1,7,0.25
2012-12-27,45.2,38.6,31.4,43.2,36.3,29.0,93,91,87,29.92,29.22,6,3,8,2.40
2012-12-28,36.5,32.2,27.7,29.6,24.5,20.8,88,73,62,30.00,29.61,6,3,14,0.00
2012-12-29,34.0,30.0,26.3,30.9,26.4,23.4,94,87,75,30.01,29.39,1,0,1,0.00
2012-12-30,29.8,27.1,21.7,27.5,19.8,10.3,94,75,57,29.96,29.42,7,1,7,0.00
2012-12-31,33.6,27.1,18.8,25.5,19.5,10.8,83,73,63,30.03,29.77,5,1,15,0.00